Regional Weather Roundup
Issued by NWS

Home | Current Version | Previous Version | Text Only | Print | Product List | Glossary On
Versions: 1 2 3 4 5 6 7 8 9 10 11 12 13 14 15 16 17 18 19 20 21 22 23 24 25 26 27 28 29 30 31 32 33 34 35 36 37 38 39 40 41 42 43
000
ASUS45 KREV 270910
RWRNV
NEVADA REGIONAL WEATHER ROUNDUP
NATIONAL WEATHER SERVICE RENO NV
100 AM PST SAT DEC 27 2014

NOTE: "FAIR" INDICATES FEW OR NO CLOUDS BELOW 12,000 FEET WITH NO
SIGNIFICANT WEATHER AND/OR OBSTRUCTIONS TO VISIBILITY.

NVZ001-003-004-271000-
WESTERN NEVADA

CITY           SKY/WX    TMP DP  RH WIND       PRES   REMARKS
RENO           PTCLDY    24  15  68 CALM      30.31F
CARSON CITY    FAIR      18  14  86 CALM      30.32R
MINDEN         FAIR      14  10  85 CALM      30.32
SLIDE MTN        N/A     27  -6  24 NE16        N/A
FALLON         CLEAR     16  11  80 S7        30.33F
LOVELOCK       CLEAR     11   7  84 CALM      30.34R
HAWTHORNE      CLEAR     19  12  73 CALM      30.34S
$$

NVZ002-CAZ072-073-271000-
NORTHERN AND CENTRAL SIERRA

CITY           SKY/WX    TMP DP  RH WIND       PRES   REMARKS
S. LAKE TAHOE  PTCLDY    15   8  73 SW3       30.23F
TRUCKEE        PTCLDY    10   7  85 E5        30.26S
SQUAW VLY 8000   N/A     19  -6  32 VRB7        N/A
BLUE CANYON    CLEAR     33  -2  22 NE6       30.20S
MAMMOTH LAKES  FAIR      10  -2  56 CALM      30.23S
BRIDGEPORT     FAIR       3  -2  79 CALM      30.24R
$$

NVZ030-031-036-271000-
NORTHERN NEVADA

CITY           SKY/WX    TMP DP  RH WIND       PRES   REMARKS
ELKO           CLEAR     13   9  84 SW5       30.28R
WINNEMUCCA     CLEAR     16  12  84 CALM      30.33R
WENDOVER       CLEAR     27   9  46 NW13      30.27S
$$

NVZ035-037-271000-
CENTRAL NEVADA

CITY           SKY/WX    TMP DP  RH WIND       PRES   REMARKS
ELY            CLEAR     10   6  84 VRB3      30.23R
EUREKA           N/A      8   4  83 S6        30.26R
$$

NVZ013-014-271000-
SOUTH CENTRAL NEVADA

CITY           SKY/WX    TMP DP  RH WIND       PRES   REMARKS
TONOPAH        CLEAR     16   6  65 N12       30.29R
$$

NVZ017-020-022-271000-
SOUTHERN NEVADA

CITY           SKY/WX    TMP DP  RH WIND       PRES   REMARKS
LAS VEGAS      CLEAR     41   8  25 NW16      30.23R
N. LAS VEGAS   CLEAR     39   8  27 N14       30.26R
NELLIS AFB     CLEAR     38   8  28 NW7       30.27S
HENDERSON      CLEAR     38   9  30 N16       30.26R
MERCURY        CLEAR     32  10  40 NE9       30.28R
$$


USA.gov is the U.S. government's official web portal to all federal, state and local government web resources and services.